Flag for Iran Weather past 2 weeks in Esfahãn, Iran

Now
68 °F

Sunny.


Feels Like: 68 °F
Forecast: 47 / 79 °F
Wind: 7 mph from North

Location: Esfahan


UV Index: 7 (High)

Visibility: 10 mi


Pressure: 30.07 "Hg

Humidity: 18%

Dew point: 23 °F

Location of EsfahãnLocation

Historic Weather in Esfahãn

°F

Esfahãn temperature yesterday

Maximum temperature yesterday: 79 °F (at 3:00 PM)
Minimum temperature yesterday: 48 °F (at 6:00 AM)
Average temperature yesterday: 66 °F

Past Weeks' High & Low Weather Summary

 TemperatureHumidityPressure
High81 °F (Apr 11, 3:00 PM)100% (Apr 2, 7:30 PM)30.27 "Hg (Apr 2, 7:30 PM)
Low34 °F (Apr 6, 7:00 AM)6% (Apr 12, 5:30 PM)29.68 "Hg (Apr 3, 3:00 AM)
Average60 °F38%30.08 "Hg
* Reported Apr 2 7:30 PM — Apr 17 7:30 PM, Esfahãn, Weather by CustomWeather, © 2014

Note: Actual official high and low records may vary slightly from our data, if they occured in-between our weather recording intervals... More about our weather records

Advertising

Historic Weather Conditions — Data for Previous 24 hours

 ConditionsComfort  
Time TempWeatherWind HumidityBarometerVisibility
7:30 PM
Apr 17
72 °FSunny.7 mph15%30.07 "Hg10 mi
7:00 PM73 °FSunny.9 mph10%30.07 "Hg10 mi
6:30 PM75 °FSunny.14 mph8%30.07 "Hg10 mi
6:00 PM75 °FPassing clouds.16 mph9%30.07 "HgN/A
5:30 PM75 °FPassing clouds.14 mph10%30.07 "HgN/A
5:00 PM75 °FPassing clouds.7 mph10%30.07 "HgN/A
4:30 PM75 °FPassing clouds.9 mph10%30.07 "HgN/A
4:00 PM75 °FPassing clouds.9 mph11%30.07 "HgN/A
3:30 PM73 °FPassing clouds.7 mph12%30.07 "HgN/A
3:00 PM75 °FPassing clouds.12 mph12%30.09 "HgN/A
2:30 PM75 °FPassing clouds.14 mph14%30.09 "HgN/A
2:00 PM73 °FPassing clouds.9 mph16%30.12 "HgN/A
1:30 PM72 °FPassing clouds.22 mph16%30.12 "HgN/A
1:00 PM72 °FPassing clouds.18 mph16%30.12 "HgN/A
12:30 PM70 °FPassing clouds.12 mph18%30.15 "HgN/A
12:00 PM70 °FPassing clouds.14 mph18%30.15 "HgN/A
11:30 AM70 °FPassing clouds.14 mph20%30.15 "HgN/A
11:00 AM70 °FPassing clouds.16 mph23%30.15 "HgN/A
10:30 AM66 °FPassing clouds.14 mph26%30.18 "HgN/A
10:00 AM66 °FSunny.16 mph32%30.18 "Hg10 mi
9:30 AM64 °FSunny.14 mph34%30.18 "Hg10 mi
9:00 AM63 °FSunny.12 mph37%30.18 "Hg10 mi
8:30 AM59 °FSunny.12 mph42%30.15 "Hg5 mi
8:00 AM55 °FClear.12 mph47%30.15 "Hg5 mi
7:30 AM46 °FClear.5 mph57%30.15 "Hg4 mi
7:00 AM46 °FClear.7 mph57%30.15 "Hg4 mi
6:30 AM48 °FClear.7 mph54%30.15 "Hg4 mi
6:00 AM46 °FClear.7 mph57%30.15 "Hg5 mi
5:30 AM46 °FClear.5 mph57%30.12 "Hg10 mi
5:00 AM46 °FClear.7 mph57%30.12 "Hg10 mi
4:30 AM54 °FClear.9 mph47%30.12 "Hg10 mi
4:00 AM52 °FClear.5 mph47%30.12 "Hg10 mi
3:30 AM52 °FClear.No wind47%30.15 "Hg10 mi
3:00 AM54 °FClear.7 mph44%30.12 "Hg10 mi
2:30 AM55 °FClear.7 mph41%30.15 "Hg10 mi
2:00 AM55 °FClear.5 mph41%30.15 "Hg10 mi
1:30 AM57 °FPassing clouds.7 mph36%30.15 "HgN/A
1:00 AM57 °FClear.7 mph36%30.15 "Hg10 mi
12:30 AM59 °FClear.9 mph34%30.15 "Hg10 mi
12:00 AM61 °FClear.9 mph31%30.15 "Hg10 mi
11:30 PM
Apr 16
63 °FClear.7 mph30%30.15 "Hg10 mi
11:00 PM63 °FClear.9 mph30%30.15 "Hg10 mi
10:30 PM63 °FClear.9 mph34%30.15 "Hg10 mi
10:00 PM66 °FClear.12 mph26%30.12 "Hg4 mi
9:30 PM68 °FClear.16 mph23%30.12 "Hg4 mi
9:00 PM68 °FPassing clouds.12 mph24%30.12 "Hg4 mi
8:30 PM70 °FScattered clouds.16 mph21%30.09 "Hg4 mi
8:00 PM72 °FScattered clouds.14 mph20%30.09 "Hg4 mi
Weather by CustomWeather, © 2014

See weather overview